Time,TemperatureF,DewpointF,PressureIn,WindDirection,WindDirectionDegrees,WindSpeedMPH,WindSpeedGustMPH,Humidity,HourlyPrecipIn,Conditions,Clouds,dailyrainin,SoftwareType,DateUTC
2013-06-20 00:01:00,58.9,17.8,30.11,WSW,248,4.0,4.9,20,0.00,,,0.00,WUHU216HW,2013-06-20 07:01:00,
2013-06-20 00:06:00,58.7,17.7,30.11,West,270,2.5,5.4,20,0.00,,,0.00,WUHU216HW,2013-06-20 07:06:00,
2013-06-20 00:11:00,58.7,17.7,30.11,West,270,2.9,5.4,20,0.00,,,0.00,WUHU216HW,2013-06-20 07:11:00,
2013-06-20 00:16:00,58.7,17.7,30.11,West,270,2.0,4.5,20,0.00,,,0.00,WUHU216HW,2013-06-20 07:16:00,
2013-06-20 00:21:00,58.5,17.6,30.11,SW,225,2.5,4.5,20,0.00,,,0.00,WUHU216HW,2013-06-20 07:21:00,
2013-06-20 00:26:00,58.1,17.3,30.11,SW,225,2.2,5.4,20,0.00,,,0.00,WUHU216HW,2013-06-20 07:26:00,
2013-06-20 00:31:00,58.0,17.1,30.11,SW,225,2.0,5.4,20,0.00,,,0.00,WUHU216HW,2013-06-20 07:31:00,
2013-06-20 00:36:00,58.0,17.1,30.11,WSW,248,2.0,4.7,20,0.00,,,0.00,WUHU216HW,2013-06-20 07:36:00,
2013-06-20 00:41:00,57.8,17.0,30.11,West,270,2.5,4.7,20,0.00,,,0.00,WUHU216HW,2013-06-20 07:41:00,
2013-06-20 00:46:00,57.8,17.0,30.11,West,270,4.9,4.9,20,0.00,,,0.00,WUHU216HW,2013-06-20 07:46:00,
2013-06-20 00:51:00,57.8,17.0,30.11,SW,225,4.9,4.9,20,0.00,,,0.00,WUHU216HW,2013-06-20 07:51:00,
2013-06-20 00:56:00,57.8,17.0,30.11,SW,225,2.7,4.9,20,0.00,,,0.00,WUHU216HW,2013-06-20 07:56:00,
2013-06-20 01:01:00,57.4,16.8,30.11,SW,225,2.5,4.3,20,0.00,,,0.00,WUHU216HW,2013-06-20 08:01:00,
2013-06-20 01:06:00,57.2,17.6,30.11,SSW,203,2.5,4.0,21,0.00,,,0.00,WUHU216HW,2013-06-20 08:06:00,
2013-06-20 01:11:00,57.1,17.4,30.11,West,270,4.0,4.5,21,0.00,,,0.00,WUHU216HW,2013-06-20 08:11:00,
2013-06-20 01:16:00,56.9,17.2,30.11,WSW,248,2.0,4.5,21,0.00,,,0.00,WUHU216HW,2013-06-20 08:16:00,
2013-06-20 01:21:00,56.9,17.2,30.11,WSW,248,2.9,4.7,21,0.00,,,0.00,WUHU216HW,2013-06-20 08:21:00,
2013-06-20 01:26:00,56.9,17.2,30.10,WSW,248,2.2,5.1,21,0.00,,,0.00,WUHU216HW,2013-06-20 08:26:00,
2013-06-20 01:31:00,56.9,17.2,30.10,WNW,293,4.7,6.9,21,0.00,,,0.00,WUHU216HW,2013-06-20 08:31:00,
2013-06-20 01:36:00,56.9,17.2,30.10,WNW,293,2.0,6.9,21,0.00,,,0.00,WUHU216HW,2013-06-20 08:36:00,
2013-06-20 01:41:00,57.1,17.4,30.10,WNW,293,4.0,6.3,21,0.00,,,0.00,WUHU216HW,2013-06-20 08:41:00,
2013-06-20 01:46:00,57.2,17.6,30.10,WSW,248,3.8,6.3,21,0.00,,,0.00,WUHU216HW,2013-06-20 08:46:00,
2013-06-20 01:51:00,57.2,17.6,30.10,West,270,5.4,6.5,21,0.00,,,0.00,WUHU216HW,2013-06-20 08:51:00,
2013-06-20 01:56:00,57.2,17.6,30.10,SW,225,2.2,6.5,21,0.00,,,0.00,WUHU216HW,2013-06-20 08:56:00,
2013-06-20 02:01:00,57.2,17.6,30.10,WSW,248,3.1,6.5,21,0.00,,,0.00,WUHU216HW,2013-06-20 09:01:00,
2013-06-20 02:06:00,57.1,17.4,30.10,SW,225,5.4,6.3,21,0.00,,,0.00,WUHU216HW,2013-06-20 09:06:00,
2013-06-20 02:11:00,56.9,17.2,30.10,WSW,248,4.0,6.3,21,0.00,,,0.00,WUHU216HW,2013-06-20 09:11:00,
2013-06-20 02:16:00,56.7,18.0,30.10,South,180,5.1,7.6,22,0.00,,,0.00,WUHU216HW,2013-06-20 09:16:00,
2013-06-20 02:21:00,56.7,18.0,30.11,WSW,248,6.7,7.6,22,0.00,,,0.00,WUHU216HW,2013-06-20 09:21:00,
2013-06-20 02:26:00,56.5,17.9,30.11,WSW,248,3.4,6.7,22,0.00,,,0.00,WUHU216HW,2013-06-20 09:26:00,
2013-06-20 02:31:00,56.3,17.7,30.10,SSW,203,2.7,6.7,22,0.00,,,0.00,WUHU216HW,2013-06-20 09:31:00,
2013-06-20 02:36:00,56.3,18.7,30.11,SW,225,4.7,6.7,23,0.00,,,0.00,WUHU216HW,2013-06-20 09:36:00,
2013-06-20 02:41:00,56.2,18.6,30.10,WSW,248,6.9,6.9,23,0.00,,,0.00,WUHU216HW,2013-06-20 09:41:00,
2013-06-20 02:46:00,56.2,18.6,30.10,WNW,293,3.4,6.9,23,0.00,,,0.00,WUHU216HW,2013-06-20 09:46:00,
2013-06-20 02:51:00,56.2,18.6,30.10,SW,225,3.1,6.9,23,0.00,,,0.00,WUHU216HW,2013-06-20 09:51:00,
2013-06-20 02:56:00,56.0,18.4,30.10,West,270,6.7,6.7,23,0.00,,,0.00,WUHU216HW,2013-06-20 09:56:00,
2013-06-20 03:01:00,56.0,18.4,30.10,SW,225,3.1,6.7,23,0.00,,,0.00,WUHU216HW,2013-06-20 10:01:00,
2013-06-20 03:06:00,56.0,18.4,30.10,SW,225,6.3,6.7,23,0.00,,,0.00,WUHU216HW,2013-06-20 10:06:00,
2013-06-20 03:11:00,56.0,19.4,30.10,SSW,203,3.4,7.4,24,0.00,,,0.00,WUHU216HW,2013-06-20 10:11:00,
2013-06-20 03:16:00,56.0,19.4,30.10,NNW,338,2.5,7.4,24,0.00,,,0.00,WUHU216HW,2013-06-20 10:16:00,
2013-06-20 03:21:00,55.8,19.2,30.10,SW,225,3.4,6.9,24,0.00,,,0.00,WUHU216HW,2013-06-20 10:21:00,
2013-06-20 03:26:00,55.8,19.2,30.10,NW,315,3.4,6.9,24,0.00,,,0.00,WUHU216HW,2013-06-20 10:26:00,
2013-06-20 03:31:00,55.6,19.0,30.10,WSW,248,1.8,5.4,24,0.00,,,0.00,WUHU216HW,2013-06-20 10:31:00,
2013-06-20 03:36:00,55.4,18.9,30.10,West,270,4.0,7.2,24,0.00,,,0.00,WUHU216HW,2013-06-20 10:36:00,
2013-06-20 03:41:00,55.4,18.9,30.10,NW,315,3.8,7.2,24,0.00,,,0.00,WUHU216HW,2013-06-20 10:41:00,
2013-06-20 03:46:00,55.4,18.9,30.10,West,270,4.9,6.0,24,0.00,,,0.00,WUHU216HW,2013-06-20 10:46:00,
2013-06-20 03:51:00,55.4,18.9,30.10,SW,225,3.4,6.7,24,0.00,,,0.00,WUHU216HW,2013-06-20 10:51:00,
2013-06-20 03:56:00,55.4,18.9,30.10,West,270,5.4,7.6,24,0.00,,,0.00,WUHU216HW,2013-06-20 10:56:00,
2013-06-20 04:01:00,55.4,19.8,30.10,SW,225,4.9,7.6,25,0.00,,,0.00,WUHU216HW,2013-06-20 11:01:00,
2013-06-20 04:06:00,55.4,18.9,30.10,SSW,203,3.1,7.4,24,0.00,,,0.00,WUHU216HW,2013-06-20 11:06:00,
2013-06-20 04:11:00,55.3,18.7,30.10,WSW,248,6.9,6.9,24,0.00,,,0.00,WUHU216HW,2013-06-20 11:11:00,
2013-06-20 04:16:00,55.1,18.5,30.10,WNW,293,4.9,6.9,24,0.00,,,0.00,WUHU216HW,2013-06-20 11:16:00,
2013-06-20 04:21:00,54.9,19.4,30.10,SSW,203,1.8,8.3,25,0.00,,,0.00,WUHU216HW,2013-06-20 11:21:00,
2013-06-20 04:26:00,54.9,19.4,30.10,WSW,248,6.0,8.5,25,0.00,,,0.00,WUHU216HW,2013-06-20 11:26:00,
2013-06-20 04:31:00,54.7,19.2,30.10,SW,225,5.4,8.5,25,0.00,,,0.00,WUHU216HW,2013-06-20 11:31:00,
2013-06-20 04:36:00,54.4,18.9,30.11,SW,225,4.0,6.0,25,0.00,,,0.00,WUHU216HW,2013-06-20 11:36:00,
2013-06-20 04:41:00,54.2,18.7,30.10,WSW,248,2.5,5.4,25,0.00,,,0.00,WUHU216HW,2013-06-20 11:41:00,
2013-06-20 04:46:00,53.8,18.5,30.11,West,270,2.9,4.9,25,0.00,,,0.00,WUHU216HW,2013-06-20 11:46:00,
2013-06-20 04:51:00,53.6,18.3,30.11,SW,225,3.4,5.4,25,0.00,,,0.00,WUHU216HW,2013-06-20 11:51:00,
2013-06-20 04:56:00,53.5,18.1,30.11,WSW,248,2.2,5.4,25,0.00,,,0.00,WUHU216HW,2013-06-20 11:56:00,
2013-06-20 05:01:00,53.3,18.9,30.11,SW,225,2.0,5.4,26,0.00,,,0.00,WUHU216HW,2013-06-20 12:01:00,
2013-06-20 05:06:00,53.3,18.9,30.11,WSW,248,2.5,5.4,26,0.00,,,0.00,WUHU216HW,2013-06-20 12:06:00,
2013-06-20 05:11:00,53.1,19.7,30.11,South,180,4.7,6.7,27,0.00,,,0.00,WUHU216HW,2013-06-20 12:11:00,
2013-06-20 05:16:00,53.1,19.7,30.11,SW,225,2.7,6.7,27,0.00,,,0.00,WUHU216HW,2013-06-20 12:16:00,
2013-06-20 05:21:00,53.1,19.7,30.12,SW,225,2.9,6.0,27,0.00,,,0.00,WUHU216HW,2013-06-20 12:21:00,
2013-06-20 05:26:00,52.9,19.5,30.12,WSW,248,1.6,5.4,27,0.00,,,0.00,WUHU216HW,2013-06-20 12:26:00,
2013-06-20 05:31:00,52.7,19.4,30.12,SSW,203,3.4,5.4,27,0.00,,,0.00,WUHU216HW,2013-06-20 12:31:00,
2013-06-20 05:36:00,52.6,19.3,30.12,SW,225,2.0,5.4,27,0.00,,,0.00,WUHU216HW,2013-06-20 12:36:00,
2013-06-20 05:41:00,52.6,19.3,30.12,WSW,248,1.6,4.7,27,0.00,,,0.00,WUHU216HW,2013-06-20 12:41:00,
2013-06-20 05:46:00,52.6,19.3,30.13,South,180,2.2,4.7,27,0.00,,,0.00,WUHU216HW,2013-06-20 12:46:00,
2013-06-20 05:51:00,52.9,19.5,30.13,SSW,203,2.9,4.7,27,0.00,,,0.00,WUHU216HW,2013-06-20 12:51:00,
2013-06-20 05:56:00,53.1,20.7,30.13,SW,225,2.9,4.3,28,0.00,,,0.00,WUHU216HW,2013-06-20 12:56:00,
2013-06-20 06:01:00,53.5,21.0,30.13,WSW,248,4.0,4.7,28,0.00,,,0.00,WUHU216HW,2013-06-20 13:01:00,
2013-06-20 06:06:00,53.8,21.2,30.13,SW,225,3.1,5.4,28,0.00,,,0.00,WUHU216HW,2013-06-20 13:06:00,
2013-06-20 06:11:00,54.2,21.6,30.13,SW,225,4.7,5.4,28,0.00,,,0.00,WUHU216HW,2013-06-20 13:11:00,
2013-06-20 06:16:00,54.5,21.9,30.13,West,270,2.2,4.9,28,0.00,,,0.00,WUHU216HW,2013-06-20 13:16:00,
2013-06-20 06:21:00,54.9,22.1,30.13,WSW,248,2.5,4.7,28,0.00,,,0.00,WUHU216HW,2013-06-20 13:21:00,
2013-06-20 06:26:00,55.3,22.5,30.14,WSW,248,3.4,4.7,28,0.00,,,0.00,WUHU216HW,2013-06-20 13:26:00,
2013-06-20 06:31:00,55.8,23.0,30.14,SW,225,1.8,5.1,28,0.00,,,0.00,WUHU216HW,2013-06-20 13:31:00,
2013-06-20 06:36:00,56.2,23.2,30.14,WSW,248,5.4,5.4,28,0.00,,,0.00,WUHU216HW,2013-06-20 13:36:00,
2013-06-20 06:41:00,56.5,22.6,30.14,WSW,248,2.9,5.4,27,0.00,,,0.00,WUHU216HW,2013-06-20 13:41:00,
2013-06-20 06:46:00,57.2,23.2,30.14,West,270,1.8,5.4,27,0.00,,,0.00,WUHU216HW,2013-06-20 13:46:00,
2013-06-20 06:51:00,57.6,23.6,30.14,WSW,248,2.0,5.4,27,0.00,,,0.00,WUHU216HW,2013-06-20 13:51:00,
2013-06-20 06:56:00,58.3,24.2,30.14,WSW,248,2.5,5.4,27,0.00,,,0.00,WUHU216HW,2013-06-20 13:56:00,
2013-06-20 07:01:00,58.9,24.7,30.14,SSW,203,1.6,6.0,27,0.00,,,0.00,WUHU216HW,2013-06-20 14:01:00,
2013-06-20 07:06:00,59.8,23.5,30.14,WSW,248,3.8,6.0,25,0.00,,,0.00,WUHU216HW,2013-06-20 14:06:00,
2013-06-20 07:11:00,60.7,24.2,30.15,SW,225,1.8,6.3,25,0.00,,,0.00,WUHU216HW,2013-06-20 14:11:00,
2013-06-20 07:16:00,61.6,24.0,30.15,SW,225,5.8,6.3,24,0.00,,,0.00,WUHU216HW,2013-06-20 14:16:00,
2013-06-20 07:21:00,62.5,25.7,30.15,South,180,3.1,8.5,25,0.00,,,0.00,WUHU216HW,2013-06-20 14:21:00,
2013-06-20 07:26:00,63.4,25.6,30.15,West,270,2.2,8.5,24,0.00,,,0.00,WUHU216HW,2013-06-20 14:26:00,
2013-06-20 07:31:00,64.4,25.5,30.15,SW,225,1.8,8.5,23,0.00,,,0.00,WUHU216HW,2013-06-20 14:31:00,
2013-06-20 07:36:00,65.5,26.4,30.15,SW,225,5.4,8.5,23,0.00,,,0.00,WUHU216HW,2013-06-20 14:36:00,
2013-06-20 07:41:00,66.8,26.5,30.15,WNW,293,3.4,7.2,22,0.00,,,0.00,WUHU216HW,2013-06-20 14:41:00,
2013-06-20 07:46:00,68.0,26.6,30.15,SW,225,4.0,9.4,21,0.00,,,0.00,WUHU216HW,2013-06-20 14:46:00,
2013-06-20 07:51:00,70.7,26.1,30.15,SSW,203,4.7,9.4,19,0.00,,,0.00,WUHU216HW,2013-06-20 14:51:00,
2013-06-20 07:56:00,75.2,26.6,30.15,SSW,203,6.9,9.8,17,0.00,,,0.00,WUHU216HW,2013-06-20 14:56:00,
2013-06-20 08:01:00,78.1,25.5,30.15,SW,225,3.4,10.5,15,0.00,,,0.00,WUHU216HW,2013-06-20 15:01:00,
2013-06-20 08:06:00,79.9,25.2,30.15,West,270,7.6,10.5,14,0.00,,,0.00,WUHU216HW,2013-06-20 15:06:00,
2013-06-20 08:11:00,81.2,24.6,30.15,SSE,158,10.5,13.0,13,0.00,,,0.00,WUHU216HW,2013-06-20 15:11:00,
2013-06-20 08:16:00,82.3,23.8,30.15,SSE,158,4.0,13.0,12,0.00,,,0.00,WUHU216HW,2013-06-20 15:16:00,
2013-06-20 08:21:00,83.0,24.3,30.15,WSW,248,5.1,15.7,12,0.00,,,0.00,WUHU216HW,2013-06-20 15:21:00,
2013-06-20 08:26:00,83.2,22.7,30.15,SSW,203,5.4,15.9,11,0.00,,,0.00,WUHU216HW,2013-06-20 15:26:00,
2013-06-20 08:31:00,83.7,24.9,30.15,SSE,158,4.3,15.9,12,0.00,,,0.00,WUHU216HW,2013-06-20 15:31:00,
2013-06-20 08:36:00,85.1,24.2,30.15,West,270,3.1,10.3,11,0.00,,,0.00,WUHU216HW,2013-06-20 15:36:00,
2013-06-20 08:41:00,84.8,22.2,30.15,WSW,248,12.5,13.9,10,0.00,,,0.00,WUHU216HW,2013-06-20 15:41:00,
2013-06-20 08:46:00,82.8,22.5,30.15,SSW,203,10.5,13.9,11,0.00,,,0.00,WUHU216HW,2013-06-20 15:46:00,
2013-06-20 08:51:00,81.0,21.1,30.15,SSE,158,8.1,12.5,11,0.00,,,0.00,WUHU216HW,2013-06-20 15:51:00,
2013-06-20 08:56:00,79.9,20.2,30.15,West,270,6.3,13.2,11,0.00,,,0.00,WUHU216HW,2013-06-20 15:56:00,
2013-06-20 09:01:00,78.5,19.1,30.15,West,270,6.9,13.2,11,0.00,,,0.00,WUHU216HW,2013-06-20 16:01:00,
2013-06-20 09:06:00,77.8,18.5,30.15,WSW,248,8.9,12.5,11,0.00,,,0.00,WUHU216HW,2013-06-20 16:06:00,
2013-06-20 09:11:00,77.8,20.3,30.15,West,270,3.8,15.7,12,0.00,,,0.00,WUHU216HW,2013-06-20 16:11:00,
2013-06-20 09:16:00,78.5,20.7,30.15,SSW,203,3.1,15.7,12,0.00,,,0.00,WUHU216HW,2013-06-20 16:16:00,
2013-06-20 09:21:00,78.8,19.4,30.15,WSW,248,4.0,14.3,11,0.00,,,0.00,WUHU216HW,2013-06-20 16:21:00,
2013-06-20 09:26:00,80.1,22.1,30.15,WSW,248,4.5,14.3,12,0.00,,,0.00,WUHU216HW,2013-06-20 16:26:00,
2013-06-20 09:31:00,80.6,20.8,30.15,WNW,293,5.6,11.9,11,0.00,,,0.00,WUHU216HW,2013-06-20 16:31:00,
2013-06-20 09:36:00,81.0,21.1,30.15,SW,225,4.9,11.9,11,0.00,,,0.00,WUHU216HW,2013-06-20 16:36:00,
2013-06-20 09:41:00,80.5,18.9,30.16,WSW,248,5.6,14.3,10,0.00,,,0.00,WUHU216HW,2013-06-20 16:41:00,
2013-06-20 09:46:00,79.9,18.6,30.16,West,270,7.4,14.3,10,0.00,,,0.00,WUHU216HW,2013-06-20 16:46:00,
2013-06-20 09:51:00,79.6,18.2,30.16,WSW,248,8.7,11.4,10,0.00,,,0.00,WUHU216HW,2013-06-20 16:51:00,
2013-06-20 09:56:00,79.4,18.1,30.16,WNW,293,7.8,13.4,10,0.00,,,0.00,WUHU216HW,2013-06-20 16:56:00,
2013-06-20 10:01:00,79.9,18.6,30.16,SSW,203,4.7,13.4,10,0.00,,,0.00,WUHU216HW,2013-06-20 17:01:00,
2013-06-20 10:06:00,80.3,18.8,30.16,SW,225,10.5,11.9,10,0.00,,,0.00,WUHU216HW,2013-06-20 17:06:00,
2013-06-20 10:11:00,81.2,19.5,30.16,WSW,248,7.4,14.8,10,0.00,,,0.00,WUHU216HW,2013-06-20 17:11:00,
2013-06-20 10:16:00,81.0,19.4,30.16,West,270,6.3,14.8,10,0.00,,,0.00,WUHU216HW,2013-06-20 17:16:00,
2013-06-20 10:21:00,81.0,19.4,30.16,SSE,158,5.4,15.0,10,0.00,,,0.00,WUHU216HW,2013-06-20 17:21:00,
2013-06-20 10:26:00,81.5,19.8,30.16,West,270,4.3,15.0,10,0.00,,,0.00,WUHU216HW,2013-06-20 17:26:00,
2013-06-20 10:31:00,81.7,20.0,30.16,WSW,248,7.2,14.1,10,0.00,,,0.00,WUHU216HW,2013-06-20 17:31:00,
2013-06-20 10:36:00,81.5,19.8,30.16,WNW,293,6.3,14.1,10,0.00,,,0.00,WUHU216HW,2013-06-20 17:36:00,
2013-06-20 10:41:00,81.9,20.1,30.16,West,270,6.3,13.2,10,0.00,,,0.00,WUHU216HW,2013-06-20 17:41:00,
2013-06-20 10:46:00,81.7,20.0,30.16,North,0,3.4,12.1,10,0.00,,,0.00,WUHU216HW,2013-06-20 17:46:00,
2013-06-20 10:51:00,81.4,19.6,30.16,SSW,203,13.4,13.6,10,0.00,,,0.00,WUHU216HW,2013-06-20 17:51:00,
2013-06-20 10:56:00,81.0,19.4,30.16,South,180,6.3,14.3,10,0.00,,,0.00,WUHU216HW,2013-06-20 17:56:00,
2013-06-20 11:01:00,81.5,19.8,30.16,South,180,6.5,14.3,10,0.00,,,0.00,WUHU216HW,2013-06-20 18:01:00,
2013-06-20 11:06:00,82.1,20.3,30.16,West,270,12.5,12.5,10,0.00,,,0.00,WUHU216HW,2013-06-20 18:06:00,
2013-06-20 11:11:00,82.4,20.5,30.16,WSW,248,5.8,12.5,10,0.00,,,0.00,WUHU216HW,2013-06-20 18:11:00,
2013-06-20 11:16:00,82.8,20.8,30.16,SW,225,9.8,12.5,10,0.00,,,0.00,WUHU216HW,2013-06-20 18:16:00,
2013-06-20 11:21:00,82.8,20.8,30.16,WNW,293,9.8,13.4,10,0.00,,,0.00,WUHU216HW,2013-06-20 18:21:00,
2013-06-20 11:26:00,83.0,20.9,30.16,West,270,6.3,13.4,10,0.00,,,0.00,WUHU216HW,2013-06-20 18:26:00,
2013-06-20 11:31:00,83.9,21.5,30.16,West,270,11.0,11.4,10,0.00,,,0.00,WUHU216HW,2013-06-20 18:31:00,
2013-06-20 11:36:00,83.5,21.2,30.16,WNW,293,5.6,17.2,10,0.00,,,0.00,WUHU216HW,2013-06-20 18:36:00,
2013-06-20 11:41:00,83.3,21.2,30.16,SW,225,3.4,17.2,10,0.00,,,0.00,WUHU216HW,2013-06-20 18:41:00,
2013-06-20 11:46:00,83.9,21.5,30.16,West,270,8.7,12.8,10,0.00,,,0.00,WUHU216HW,2013-06-20 18:46:00,
2013-06-20 11:51:00,83.5,21.2,30.16,West,270,12.5,13.2,10,0.00,,,0.00,WUHU216HW,2013-06-20 18:51:00,
2013-06-20 11:56:00,82.8,20.8,30.16,WSW,248,5.8,13.2,10,0.00,,,0.00,WUHU216HW,2013-06-20 18:56:00,
2013-06-20 12:01:00,83.2,22.7,30.16,West,270,10.7,13.0,11,0.00,,,0.00,WUHU216HW,2013-06-20 19:01:00,
2013-06-20 12:06:00,83.9,21.5,30.16,WSW,248,4.7,13.4,10,0.00,,,0.00,WUHU216HW,2013-06-20 19:06:00,
2013-06-20 12:11:00,84.2,21.8,30.16,WSW,248,6.3,16.1,10,0.00,,,0.00,WUHU216HW,2013-06-20 19:11:00,
2013-06-20 12:16:00,84.6,22.1,30.15,WSW,248,12.8,16.1,10,0.00,,,0.00,WUHU216HW,2013-06-20 19:16:00,
2013-06-20 12:21:00,85.0,22.3,30.15,SW,225,4.3,16.3,10,0.00,,,0.00,WUHU216HW,2013-06-20 19:21:00,
2013-06-20 12:26:00,85.0,22.3,30.15,WSW,248,9.8,16.8,10,0.00,,,0.00,WUHU216HW,2013-06-20 19:26:00,
2013-06-20 12:31:00,85.1,22.5,30.15,SSE,158,8.5,16.8,10,0.00,,,0.00,WUHU216HW,2013-06-20 19:31:00,
2013-06-20 12:36:00,85.3,22.7,30.15,South,180,4.5,15.7,10,0.00,,,0.00,WUHU216HW,2013-06-20 19:36:00,
2013-06-20 12:41:00,85.3,22.7,30.15,WSW,248,11.4,15.2,10,0.00,,,0.00,WUHU216HW,2013-06-20 19:41:00,
2013-06-20 12:46:00,85.1,22.5,30.15,WNW,293,9.8,15.2,10,0.00,,,0.00,WUHU216HW,2013-06-20 19:46:00,
2013-06-20 12:51:00,84.4,22.0,30.15,WNW,293,13.4,15.4,10,0.00,,,0.00,WUHU216HW,2013-06-20 19:51:00,
2013-06-20 12:56:00,84.2,21.8,30.15,North,0,1.8,15.4,10,0.00,,,0.00,WUHU216HW,2013-06-20 19:56:00,
2013-06-20 13:01:00,85.0,22.3,30.15,NW,315,4.0,13.4,10,0.00,,,0.00,WUHU216HW,2013-06-20 20:01:00,
2013-06-20 13:06:00,85.3,22.7,30.15,WSW,248,9.6,13.2,10,0.00,,,0.00,WUHU216HW,2013-06-20 20:06:00,
2013-06-20 13:11:00,85.7,23.0,30.15,NNW,338,7.6,10.7,10,0.00,,,0.00,WUHU216HW,2013-06-20 20:11:00,
2013-06-20 13:16:00,86.0,23.2,30.15,SW,225,8.3,11.9,10,0.00,,,0.00,WUHU216HW,2013-06-20 20:16:00,
2013-06-20 13:21:00,86.4,23.5,30.15,SW,225,5.6,12.8,10,0.00,,,0.00,WUHU216HW,2013-06-20 20:21:00,
2013-06-20 13:26:00,86.0,23.2,30.14,SW,225,7.8,12.8,10,0.00,,,0.00,WUHU216HW,2013-06-20 20:26:00,
2013-06-20 13:31:00,86.4,23.5,30.14,WSW,248,5.4,15.7,10,0.00,,,0.00,WUHU216HW,2013-06-20 20:31:00,
2013-06-20 13:36:00,86.8,23.8,30.14,NW,315,6.7,15.7,10,0.00,,,0.00,WUHU216HW,2013-06-20 20:36:00,
2013-06-20 13:41:00,86.4,23.5,30.15,SSW,203,5.8,13.4,10,0.00,,,0.00,WUHU216HW,2013-06-20 20:41:00,
2013-06-20 13:46:00,86.2,23.4,30.14,SW,225,14.8,14.8,10,0.00,,,0.00,WUHU216HW,2013-06-20 20:46:00,
2013-06-20 13:51:00,86.2,23.4,30.14,NNE,23,2.7,15.7,10,0.00,,,0.00,WUHU216HW,2013-06-20 20:51:00,
2013-06-20 13:56:00,86.2,23.4,30.14,SW,225,3.4,15.7,10,0.00,,,0.00,WUHU216HW,2013-06-20 20:56:00,
2013-06-20 14:01:00,86.4,23.5,30.14,SSW,203,7.4,15.4,10,0.00,,,0.00,WUHU216HW,2013-06-20 21:01:00,
2013-06-20 14:06:00,86.4,23.5,30.15,NW,315,10.7,15.4,10,0.00,,,0.00,WUHU216HW,2013-06-20 21:06:00,
2013-06-20 14:11:00,85.9,23.0,30.14,WNW,293,9.2,15.0,9,0.00,,,0.00,WUHU216HW,2013-06-20 21:11:00,
2013-06-20 14:16:00,85.3,22.7,30.14,SSE,158,5.4,15.0,10,0.00,,,0.00,WUHU216HW,2013-06-20 21:16:00,
2013-06-20 14:21:00,85.3,22.7,30.14,WNW,293,9.2,14.3,10,0.00,,,0.00,WUHU216HW,2013-06-20 21:21:00,
2013-06-20 14:26:00,85.3,22.7,30.14,South,180,10.5,14.3,10,0.00,,,0.00,WUHU216HW,2013-06-20 21:26:00,
2013-06-20 14:31:00,85.3,22.7,30.14,SW,225,3.6,10.5,9,0.00,,,0.00,WUHU216HW,2013-06-20 21:31:00,
2013-06-20 14:36:00,85.5,22.8,30.14,WSW,248,15.9,15.9,8,0.00,,,0.00,WUHU216HW,2013-06-20 21:36:00,
2013-06-20 14:41:00,85.3,22.7,30.14,South,180,15.7,16.1,10,0.00,,,0.00,WUHU216HW,2013-06-20 21:41:00,
2013-06-20 14:46:00,85.3,22.7,30.14,WNW,293,4.9,16.1,10,0.00,,,0.00,WUHU216HW,2013-06-20 21:46:00,
2013-06-20 14:51:00,85.3,22.7,30.14,SSW,203,8.7,14.1,10,0.00,,,0.00,WUHU216HW,2013-06-20 21:51:00,
2013-06-20 14:56:00,84.6,22.1,30.14,WSW,248,8.7,13.9,9,0.00,,,0.00,WUHU216HW,2013-06-20 21:56:00,
2013-06-20 15:01:00,84.4,22.0,30.13,SW,225,3.6,13.2,10,0.00,,,0.00,WUHU216HW,2013-06-20 22:01:00,
2013-06-20 15:06:00,85.0,22.3,30.13,SSW,203,8.7,13.2,10,0.00,,,0.00,WUHU216HW,2013-06-20 22:06:00,
2013-06-20 15:11:00,85.0,22.3,30.13,South,180,4.0,12.5,10,0.00,,,0.00,WUHU216HW,2013-06-20 22:11:00,
2013-06-20 15:16:00,84.6,22.1,30.13,SW,225,14.3,17.4,10,0.00,,,0.00,WUHU216HW,2013-06-20 22:16:00,
2013-06-20 15:21:00,84.2,21.8,30.13,SW,225,9.8,17.4,10,0.00,,,0.00,WUHU216HW,2013-06-20 22:21:00,
2013-06-20 15:26:00,84.2,21.8,30.13,South,180,7.6,15.7,10,0.00,,,0.00,WUHU216HW,2013-06-20 22:26:00,
2013-06-20 15:31:00,84.1,21.7,30.13,South,180,6.9,15.7,10,0.00,,,0.00,WUHU216HW,2013-06-20 22:31:00,
2013-06-20 15:36:00,84.2,21.8,30.13,SSE,158,7.2,12.1,10,0.00,,,0.00,WUHU216HW,2013-06-20 22:36:00,
2013-06-20 15:41:00,84.2,21.8,30.13,SSE,158,7.4,13.4,10,0.00,,,0.00,WUHU216HW,2013-06-20 22:41:00,
2013-06-20 15:46:00,84.1,21.7,30.13,SSW,203,5.8,13.4,10,0.00,,,0.00,WUHU216HW,2013-06-20 22:46:00,
2013-06-20 15:51:00,83.9,23.2,30.13,SSE,158,4.0,13.4,11,0.00,,,0.00,WUHU216HW,2013-06-20 22:51:00,
2013-06-20 15:56:00,84.2,23.5,30.13,WNW,293,4.7,13.4,11,0.00,,,0.00,WUHU216HW,2013-06-20 22:56:00,
2013-06-20 16:01:00,84.1,21.7,30.13,South,180,11.2,16.6,10,0.00,,,0.00,WUHU216HW,2013-06-20 23:01:00,
2013-06-20 16:06:00,83.9,23.2,30.13,West,270,7.2,16.6,11,0.00,,,0.00,WUHU216HW,2013-06-20 23:06:00,
2013-06-20 16:11:00,83.9,21.5,30.13,WNW,293,5.1,12.3,10,0.00,,,0.00,WUHU216HW,2013-06-20 23:11:00,
2013-06-20 16:16:00,83.5,23.0,30.13,South,180,10.1,12.5,11,0.00,,,0.00,WUHU216HW,2013-06-20 23:16:00,
2013-06-20 16:21:00,83.2,22.7,30.13,SSE,158,9.2,12.5,11,0.00,,,0.00,WUHU216HW,2013-06-20 23:21:00,
2013-06-20 16:26:00,83.2,22.7,30.13,East,90,3.6,10.1,11,0.00,,,0.00,WUHU216HW,2013-06-20 23:26:00,
2013-06-20 16:31:00,83.0,22.6,30.13,WSW,248,9.2,12.8,11,0.00,,,0.00,WUHU216HW,2013-06-20 23:31:00,
2013-06-20 16:36:00,83.2,22.7,30.13,ESE,113,3.6,12.8,11,0.00,,,0.00,WUHU216HW,2013-06-20 23:36:00,
2013-06-20 16:41:00,83.2,22.7,30.13,West,270,7.6,12.5,11,0.00,,,0.00,WUHU216HW,2013-06-20 23:41:00,
2013-06-20 16:46:00,82.6,22.3,30.13,SW,225,6.5,14.1,11,0.00,,,0.00,WUHU216HW,2013-06-20 23:46:00,
2013-06-20 16:51:00,82.3,22.1,30.13,NNE,23,9.6,14.1,11,0.00,,,0.00,WUHU216HW,2013-06-20 23:51:00,
2013-06-20 16:56:00,81.9,21.8,30.13,SSW,203,9.4,12.1,11,0.00,,,0.00,WUHU216HW,2013-06-20 23:56:00,
2013-06-20 17:01:00,81.7,23.3,30.13,NW,315,6.7,12.1,12,0.00,,,0.00,WUHU216HW,2013-06-21 00:01:00,
2013-06-20 17:06:00,81.7,23.3,30.13,WSW,248,12.1,15.4,12,0.00,,,0.00,WUHU216HW,2013-06-21 00:06:00,
2013-06-20 17:11:00,81.4,23.0,30.13,SW,225,6.9,15.4,12,0.00,,,0.00,WUHU216HW,2013-06-21 00:11:00,
2013-06-20 17:16:00,81.2,22.9,30.13,WSW,248,7.2,12.3,12,0.00,,,0.00,WUHU216HW,2013-06-21 00:16:00,
2013-06-20 17:21:00,81.0,22.8,30.13,SSW,203,10.3,14.3,12,0.00,,,0.00,WUHU216HW,2013-06-21 00:21:00,
2013-06-20 17:26:00,80.6,22.5,30.13,SSW,203,4.7,16.3,12,0.00,,,0.00,WUHU216HW,2013-06-21 00:26:00,
2013-06-20 17:31:00,80.6,22.5,30.13,SW,225,6.9,16.3,12,0.00,,,0.00,WUHU216HW,2013-06-21 00:31:00,
2013-06-20 17:36:00,80.1,22.1,30.13,SE,135,7.8,12.1,12,0.00,,,0.00,WUHU216HW,2013-06-21 00:36:00,
2013-06-20 17:41:00,79.9,21.9,30.13,WSW,248,5.4,13.2,12,0.00,,,0.00,WUHU216HW,2013-06-21 00:41:00,
2013-06-20 17:46:00,79.6,21.6,30.13,SW,225,6.9,13.2,12,0.00,,,0.00,WUHU216HW,2013-06-21 00:46:00,
2013-06-20 17:51:00,78.8,21.0,30.13,SSW,203,11.0,11.9,12,0.00,,,0.00,WUHU216HW,2013-06-21 00:51:00,
2013-06-20 17:56:00,78.7,20.9,30.13,South,180,4.9,12.8,12,0.00,,,0.00,WUHU216HW,2013-06-21 00:56:00,
2013-06-20 18:01:00,78.3,22.2,30.13,WSW,248,6.9,12.8,13,0.00,,,0.00,WUHU216HW,2013-06-21 01:01:00,
2013-06-20 18:06:00,77.9,22.0,30.12,WNW,293,3.4,9.4,13,0.00,,,0.00,WUHU216HW,2013-06-21 01:06:00,
2013-06-20 18:11:00,77.6,21.8,30.12,WSW,248,7.6,12.3,13,0.00,,,0.00,WUHU216HW,2013-06-21 01:11:00,
2013-06-20 18:16:00,77.4,21.6,30.13,SSE,158,5.4,12.3,13,0.00,,,0.00,WUHU216HW,2013-06-21 01:16:00,
2013-06-20 18:21:00,77.2,21.5,30.12,WSW,248,4.0,16.8,13,0.00,,,0.00,WUHU216HW,2013-06-21 01:21:00,
2013-06-20 18:26:00,76.9,21.3,30.13,WSW,248,8.9,16.8,13,0.00,,,0.00,WUHU216HW,2013-06-21 01:26:00,
2013-06-20 18:31:00,76.7,21.1,30.12,WSW,248,9.2,12.8,13,0.00,,,0.00,WUHU216HW,2013-06-21 01:31:00,
2013-06-20 18:36:00,76.3,20.8,30.13,WSW,248,7.4,11.6,13,0.00,,,0.00,WUHU216HW,2013-06-21 01:36:00,
2013-06-20 18:41:00,76.0,20.5,30.12,SW,225,4.9,11.0,13,0.00,,,0.00,WUHU216HW,2013-06-21 01:41:00,
2013-06-20 18:46:00,75.8,20.3,30.12,SSW,203,3.8,11.0,13,0.00,,,0.00,WUHU216HW,2013-06-21 01:46:00,
2013-06-20 18:51:00,75.4,21.7,30.12,WSW,248,5.4,9.2,14,0.00,,,0.00,WUHU216HW,2013-06-21 01:51:00,
2013-06-20 18:56:00,75.2,21.6,30.12,SW,225,3.6,12.8,14,0.00,,,0.00,WUHU216HW,2013-06-21 01:56:00,
2013-06-20 19:01:00,74.7,22.9,30.13,South,180,8.9,12.8,15,0.00,,,0.00,WUHU216HW,2013-06-21 02:01:00,
2013-06-20 19:06:00,74.3,22.5,30.13,SSW,203,7.4,15.0,15,0.00,,,0.00,WUHU216HW,2013-06-21 02:06:00,
2013-06-20 19:11:00,74.0,22.3,30.13,WNW,293,4.7,15.0,15,0.00,,,0.00,WUHU216HW,2013-06-21 02:11:00,
2013-06-20 19:16:00,73.6,22.0,30.13,West,270,3.4,12.3,15,0.00,,,0.00,WUHU216HW,2013-06-21 02:16:00,
2013-06-20 19:21:00,73.3,21.7,30.13,South,180,2.5,12.3,15,0.00,,,0.00,WUHU216HW,2013-06-21 02:21:00,
2013-06-20 19:26:00,72.9,21.4,30.13,South,180,4.9,9.6,15,0.00,,,0.00,WUHU216HW,2013-06-21 02:26:00,
2013-06-20 19:31:00,72.5,21.1,30.13,SW,225,11.9,11.9,15,0.00,,,0.00,WUHU216HW,2013-06-21 02:31:00,
2013-06-20 19:36:00,72.2,20.8,30.13,SW,225,5.4,11.9,15,0.00,,,0.00,WUHU216HW,2013-06-21 02:36:00,
2013-06-20 19:41:00,71.6,22.0,30.13,WSW,248,3.4,10.5,16,0.00,,,0.00,WUHU216HW,2013-06-21 02:41:00,
2013-06-20 19:46:00,71.3,21.7,30.13,SW,225,6.0,10.5,16,0.00,,,0.00,WUHU216HW,2013-06-21 02:46:00,
2013-06-20 19:51:00,70.9,21.4,30.13,SSW,203,6.3,10.1,16,0.00,,,0.00,WUHU216HW,2013-06-21 02:51:00,
2013-06-20 19:56:00,70.6,21.1,30.13,WSW,248,6.7,8.7,16,0.00,,,0.00,WUHU216HW,2013-06-21 02:56:00,
2013-06-20 20:01:00,70.2,20.8,30.13,SW,225,2.2,8.7,16,0.00,,,0.00,WUHU216HW,2013-06-21 03:01:00,
2013-06-20 20:06:00,70.0,20.7,30.13,SSW,203,2.5,8.7,16,0.00,,,0.00,WUHU216HW,2013-06-21 03:06:00,
2013-06-20 20:11:00,69.7,22.0,30.13,SW,225,4.7,6.7,17,0.00,,,0.00,WUHU216HW,2013-06-21 03:11:00,
2013-06-20 20:16:00,69.3,21.7,30.14,West,270,4.0,8.3,17,0.00,,,0.00,WUHU216HW,2013-06-21 03:16:00,
2013-06-20 20:21:00,68.9,21.4,30.14,WSW,248,2.5,8.3,17,0.00,,,0.00,WUHU216HW,2013-06-21 03:21:00,
2013-06-20 20:26:00,68.6,21.2,30.14,South,180,3.1,6.3,17,0.00,,,0.00,WUHU216HW,2013-06-21 03:26:00,
2013-06-20 20:31:00,68.2,20.9,30.14,WSW,248,2.5,6.3,17,0.00,,,0.00,WUHU216HW,2013-06-21 03:31:00,
2013-06-20 20:36:00,67.9,22.2,30.14,SW,225,6.9,6.9,18,0.00,,,0.00,WUHU216HW,2013-06-21 03:36:00,
2013-06-20 20:41:00,67.5,21.9,30.14,SW,225,4.0,6.9,18,0.00,,,0.00,WUHU216HW,2013-06-21 03:41:00,
2013-06-20 20:46:00,67.3,21.7,30.15,WNW,293,2.2,6.9,18,0.00,,,0.00,WUHU216HW,2013-06-21 03:46:00,
2013-06-20 20:51:00,67.0,21.4,30.15,SW,225,2.5,4.9,18,0.00,,,0.00,WUHU216HW,2013-06-21 03:51:00,
2013-06-20 20:56:00,66.8,21.2,30.15,WSW,248,4.5,4.9,18,0.00,,,0.00,WUHU216HW,2013-06-21 03:56:00,
2013-06-20 21:01:00,66.6,22.7,30.15,SW,225,2.9,4.9,19,0.00,,,0.00,WUHU216HW,2013-06-21 04:01:00,
2013-06-20 21:06:00,66.2,22.3,30.15,SW,225,3.4,5.6,19,0.00,,,0.00,WUHU216HW,2013-06-21 04:06:00,
2013-06-20 21:11:00,65.9,22.1,30.15,SW,225,1.3,5.6,19,0.00,,,0.00,WUHU216HW,2013-06-21 04:11:00,
2013-06-20 21:16:00,65.7,22.0,30.15,SW,225,1.8,4.7,19,0.00,,,0.00,WUHU216HW,2013-06-21 04:16:00,
2013-06-20 21:21:00,65.3,21.6,30.16,SW,225,2.7,4.7,19,0.00,,,0.00,WUHU216HW,2013-06-21 04:21:00,
2013-06-20 21:26:00,65.0,23.0,30.16,WSW,248,4.0,4.0,20,0.00,,,0.00,WUHU216HW,2013-06-21 04:26:00,
2013-06-20 21:31:00,64.8,23.8,30.16,SW,225,4.7,4.7,21,0.00,,,0.00,WUHU216HW,2013-06-21 04:31:00,
2013-06-20 21:36:00,64.4,23.5,30.16,WSW,248,5.1,5.1,21,0.00,,,0.00,WUHU216HW,2013-06-21 04:36:00,
2013-06-20 21:41:00,64.4,23.5,30.16,WNW,293,3.8,6.7,21,0.00,,,0.00,WUHU216HW,2013-06-21 04:41:00,
2013-06-20 21:46:00,64.3,23.3,30.16,WSW,248,2.9,6.7,21,0.00,,,0.00,WUHU216HW,2013-06-21 04:46:00,
2013-06-20 21:51:00,64.1,23.2,30.16,WSW,248,2.5,5.8,21,0.00,,,0.00,WUHU216HW,2013-06-21 04:51:00,
2013-06-20 21:56:00,63.9,23.0,30.16,WSW,248,2.2,5.6,21,0.00,,,0.00,WUHU216HW,2013-06-21 04:56:00,
2013-06-20 22:01:00,63.7,23.9,30.16,SW,225,2.9,6.3,22,0.00,,,0.00,WUHU216HW,2013-06-21 05:01:00,
2013-06-20 22:06:00,63.7,23.9,30.16,SW,225,2.5,6.3,22,0.00,,,0.00,WUHU216HW,2013-06-21 05:06:00,
2013-06-20 22:11:00,63.5,23.8,30.16,SW,225,2.5,5.4,22,0.00,,,0.00,WUHU216HW,2013-06-21 05:11:00,
2013-06-20 22:16:00,63.4,23.6,30.16,WNW,293,4.0,5.4,22,0.00,,,0.00,WUHU216HW,2013-06-21 05:16:00,
2013-06-20 22:21:00,63.2,23.5,30.16,WNW,293,1.8,5.4,22,0.00,,,0.00,WUHU216HW,2013-06-21 05:21:00,
2013-06-20 22:26:00,63.0,23.3,30.16,WSW,248,6.3,6.3,22,0.00,,,0.00,WUHU216HW,2013-06-21 05:26:00,
2013-06-20 22:31:00,62.8,24.1,30.16,WSW,248,6.7,6.9,23,0.00,,,0.00,WUHU216HW,2013-06-21 05:31:00,
2013-06-20 22:36:00,62.6,23.9,30.16,West,270,2.2,6.9,23,0.00,,,0.00,WUHU216HW,2013-06-21 05:36:00,
2013-06-20 22:41:00,62.3,23.7,30.15,WSW,248,4.5,6.7,23,0.00,,,0.00,WUHU216HW,2013-06-21 05:41:00,
2013-06-20 22:46:00,62.3,23.7,30.16,WSW,248,4.0,7.6,23,0.00,,,0.00,WUHU216HW,2013-06-21 05:46:00,
2013-06-20 22:51:00,62.1,23.5,30.16,West,270,4.5,7.6,23,0.00,,,0.00,WUHU216HW,2013-06-21 05:51:00,
2013-06-20 22:56:00,62.1,23.5,30.16,WSW,248,5.1,6.0,23,0.00,,,0.00,WUHU216HW,2013-06-21 05:56:00,
2013-06-20 23:01:00,61.9,22.4,30.16,WNW,293,5.4,5.8,22,0.00,,,0.00,WUHU216HW,2013-06-21 06:01:00,
2013-06-20 23:06:00,61.9,23.4,30.15,NW,315,5.4,6.5,23,0.00,,,0.00,WUHU216HW,2013-06-21 06:06:00,
2013-06-20 23:11:00,61.7,23.2,30.16,WNW,293,4.7,8.5,23,0.00,,,0.00,WUHU216HW,2013-06-21 06:11:00,
2013-06-20 23:16:00,61.7,23.2,30.15,SW,225,5.8,8.5,23,0.00,,,0.00,WUHU216HW,2013-06-21 06:16:00,
2013-06-20 23:21:00,61.9,23.4,30.16,WNW,293,4.9,7.8,23,0.00,,,0.00,WUHU216HW,2013-06-21 06:21:00,
2013-06-20 23:26:00,61.9,24.3,30.15,West,270,5.1,6.9,24,0.00,,,0.00,WUHU216HW,2013-06-21 06:26:00,
2013-06-20 23:31:00,61.9,23.4,30.15,WSW,248,3.6,6.9,23,0.00,,,0.00,WUHU216HW,2013-06-21 06:31:00,
2013-06-20 23:36:00,61.9,24.3,30.15,SW,225,4.7,6.5,24,0.00,,,0.00,WUHU216HW,2013-06-21 06:36:00,
2013-06-20 23:41:00,62.1,25.5,30.15,SW,225,6.3,8.5,25,0.00,,,0.00,WUHU216HW,2013-06-21 06:41:00,
2013-06-20 23:46:00,62.3,25.7,30.15,SW,225,5.1,8.5,25,0.00,,,0.00,WUHU216HW,2013-06-21 06:46:00,
2013-06-20 23:51:00,62.3,25.7,30.15,SW,225,6.7,7.6,25,0.00,,,0.00,WUHU216HW,2013-06-21 06:51:00,
2013-06-20 23:56:00,62.3,25.7,30.15,West,270,2.7,7.6,25,0.00,,,0.00,WUHU216HW,2013-06-21 06:56:00,